Temp
7 7 8 8 8 8 8 8 7 7 7 8 8 7 7 7 7 6 6 7 7 7 7 7 7 7 7 7 9 9 9 9 9 9 9 11 12 13 14 17 17 18 20 20 20 20 20
7 7 8 8 8 8 7 7 8 7 7 7 8 7 7 7 7 6 6 6 6 7 7 7 7 7 6 8 9 9 9 9 9 10 9 10 12 14 15 16 18 18 19 20 20 20 20
6 6 7 8 8 8 7 7 7 7 7 7 7 7 7 7 7 6 6 6 6 7 7 7 6 6 6 8 8 9 8 9 9 10 11 10 12 13 15 15 17 18 18 20 20 20 21
6 6 7 7 8 8 8 7 7 7 7 7 7 7 6 6 6 6 6 6 6 6 7 7 6 5 6 7 8 8 8 8 9 9 10 11 11 12 12 12 14 17 17 16 19 20 21
6 6 7 7 8 8 8 7 7 7 7 7 7 7 7 6 6 6 6 5 5 6 6 6 5 5 7 7 7 8 8 9 9 9 9 10 10 11 11 10 12 15 16 16 19 21 21
6 6 7 7 7 7 8 7 7 7 7 7 6 7 7 6 6 6 5 5 5 5 5 4 5 6 7 7 8 7 8 8 9 9 10 10 9 10 11 11 12 15 15 18 18 21 21
6 6 6 7 7 7 7 8 7 7 7 7 6 6 7 7 6 6 5 5 5 5 4 5 6 8 8 8 7 7 8 8 8 9 9 10 9 9 12 13 13 16 16 19 20 21 21
7 6 6 7 7 7 7 7 7 7 7 7 6 7 7 6 6 5 4 4 5 5 5 5 6 6 7 7 8 7 8 8 9 9 10 9 8 12 14 13 13 15 17 19 20 20 20
6 7 6 6 6 7 7 7 7 7 7 7 7 7 6 6 6 5 5 5 5 5 5 4 5 5 7 6 8 9 8 9 10 9 10 9 10 13 13 11 13 15 15 18 19 19 19
6 6 6 6 7 7 7 7 7 8 7 7 6 6 6 5 5 5 4 6 5 5 4 6 4 5 5 4 5 7 9 9 10 10 10 9 10 10 13 11 11 14 16 19 19 18 18
6 6 6 7 6 7 7 7 7 7 7 7 6 6 6 6 5 5 5 5 5 5 7 8 5 4 5 4 9 9 9 9 9 10 6 7 9 9 12 12 12 14 18 19 18 18 17
3 5 6 6 7 7 7 7 7 7 7 7 7 6 5 5 5 4 5 5 4 5 7 6 5 5 6 5 8 10 9 9 10 9 7 9 9 10 12 13 12 14 16 16 17 17 16
4 3 4 6 6 7 7 7 7 7 7 7 7 7 6 5 5 5 4 3 5 7 6 6 5 5 6 6 7 9 9 8 7 6 7 7 6 7 10 9 10 13 13 13 14 14 17
2 2 2 5 6 6 7 7 7 7 7 7 7 7 6 5 4 5 4 4 6 9 7 5 5 5 5 6 8 10 9 8 9 7 7 8 8 7 9 10 10 12 13 16 16 16 18
2 2 1 3 6 6 7 6 7 7 7 7 6 6 5 5 4 4 3 5 7 8 6 6 6 6 6 6 10 10 9 9 10 8 7 8 9 9 9 12 13 12 14 18 18 20 20
2 2 1 2 5 6 6 6 7 7 7 6 6 6 5 5 5 4 4 6 6 7 5 6 8 9 9 8 10 10 9 10 11 10 7 7 8 8 10 12 10 13 18 16 18 17 18
1 1 2 2 4 6 6 6 6 7 6 6 6 5 5 5 4 4 4 5 6 7 6 7 11 11 12 11 11 10 11 13 12 12 8 7 7 8 8 12 11 11 14 16 19 19 20
1 1 2 1 3 6 6 6 6 6 6 6 5 6 6 5 5 4 5 4 6 7 6 9 13 13 13 13 11 11 12 13 13 12 8 9 8 8 11 13 15 14 15 17 18 17 19
0 1 2 3 2 6 6 6 6 6 6 6 6 7 5 4 6 5 6 5 6 6 8 10 12 13 14 13 11 11 12 14 13 13 11 13 12 10 10 12 12 12 16 17 18 19 19
-0 1 2 2 2 5 6 6 6 6 6 6 7 7 5 5 6 7 6 7 7 7 9 11 12 13 13 13 13 12 12 14 13 13 13 14 15 16 16 17 14 13 14 17 17 17 18
-0 1 1 2 2 4 6 6 6 6 6 6 6 8 8 6 6 6 7 8 7 8 9 11 11 13 13 12 13 13 12 13 13 14 13 13 15 17 18 18 17 16 15 15 16 17 18
-1 0 1 1 2 3 4 6 6 6 5 6 7 9 7 8 8 8 7 7 7 8 10 10 9 13 14 14 14 13 14 14 13 13 13 13 14 16 16 16 17 17 17 17 17 17 18
-1 -0 0 1 2 3 4 5 6 5 5 5 6 6 7 12 12 10 10 8 8 8 8 11 10 12 14 15 15 15 15 15 15 14 13 13 13 15 15 16 16 15 17 17 17 18 18
-1 -1 -0 0 1 2 5 5 6 5 5 5 6 7 8 10 13 13 10 8 8 8 8 9 8 9 14 13 14 14 14 11 14 15 15 13 14 15 13 15 13 17 16 18 18 18 19
-1 -1 -0 0 1 2 3 5 5 5 5 5 5 6 8 10 13 13 10 9 6 6 7 6 7 9 11 13 13 11 10 9 9 9 14 13 13 13 13 13 16 17 15 16 17 17 19
-2 -1 -0 -0 -0 1 3 5 5 5 5 5 5 5 6 9 12 11 11 8 7 6 5 6 6 8 10 11 12 10 10 9 9 8 8 11 12 12 12 13 14 16 15 15 17 16 19
-2 -1 -1 -0 -0 1 3 5 5 5 5 5 5 5 5 8 10 9 11 9 6 7 9 8 9 9 9 9 12 13 13 13 10 9 7 8 9 9 9 11 16 15 14 14 15 16 14
-2 -1 -1 -0 -0 1 2 5 5 4 5 5 5 5 5 7 8 7 7 7 5 6 11 8 10 9 8 11 12 12 14 14 14 13 10 10 9 9 9 10 12 14 13 15 13 12 13
-2 -1 -1 -0 0 1 2 5 5 5 4 5 5 5 5 5 6 6 7 7 7 7 8 8 9 10 10 9 12 11 12 13 15 13 13 13 15 15 15 14 12 12 11 11 12 12 12
Height
1495 1494 1494 1493 1491 1489 1486 1484 1483 1482 1482 1482 1481 1481 1480 1479 1480 1480 1480 1478 1477 1477 1479 1481 1483 1484 1487 1488 1484 1483 1482 1482 1484 1485 1488 1491 1491 1494 1490 1486 1489 1485 1484 1484 1487 1486 1487
1491 1489 1489 1489 1488 1486 1483 1482 1480 1478 1478 1478 1478 1478 1478 1478 1479 1479 1479 1477 1476 1475 1476 1479 1481 1482 1484 1483 1482 1483 1483 1483 1485 1486 1486 1490 1489 1490 1487 1484 1481 1482 1481 1482 1481 1483 1483
1486 1484 1483 1483 1483 1482 1480 1479 1477 1475 1474 1474 1474 1475 1475 1475 1477 1477 1477 1476 1475 1474 1474 1476 1478 1480 1481 1478 1478 1480 1480 1480 1483 1485 1486 1487 1489 1489 1485 1484 1479 1478 1478 1476 1476 1477 1477
1480 1478 1478 1477 1478 1477 1476 1475 1474 1472 1470 1470 1471 1470 1471 1473 1474 1475 1475 1474 1473 1472 1472 1474 1476 1479 1474 1474 1476 1476 1477 1478 1479 1481 1484 1486 1487 1488 1487 1485 1478 1474 1477 1481 1471 1472 1473
1473 1473 1472 1472 1472 1471 1471 1471 1470 1469 1467 1466 1467 1467 1467 1469 1470 1473 1473 1471 1471 1470 1470 1472 1476 1478 1472 1467 1467 1470 1474 1475 1478 1479 1481 1484 1485 1486 1489 1487 1483 1471 1471 1471 1468 1462 1467
1467 1466 1467 1466 1466 1466 1466 1466 1465 1465 1464 1462 1463 1463 1463 1465 1467 1470 1470 1469 1468 1468 1469 1472 1475 1479 1467 1462 1463 1464 1469 1472 1475 1478 1479 1480 1482 1480 1481 1481 1472 1465 1467 1457 1464 1455 1460
1460 1460 1460 1460 1460 1460 1460 1460 1460 1460 1460 1459 1458 1458 1459 1461 1463 1466 1468 1467 1469 1467 1460 1458 1460 1458 1458 1459 1461 1461 1465 1469 1473 1474 1471 1472 1475 1469 1464 1465 1466 1458 1459 1453 1449 1448 1452
1454 1453 1453 1453 1454 1454 1455 1455 1454 1455 1456 1455 1454 1455 1455 1456 1460 1462 1464 1462 1460 1459 1456 1455 1456 1458 1459 1458 1458 1458 1463 1466 1468 1464 1468 1471 1466 1459 1458 1462 1464 1455 1452 1445 1443 1447 1455
1446 1446 1446 1446 1447 1449 1449 1450 1449 1451 1451 1451 1451 1451 1452 1453 1455 1458 1458 1457 1457 1457 1454 1450 1449 1451 1454 1457 1453 1453 1457 1458 1457 1459 1457 1459 1454 1453 1454 1462 1460 1452 1452 1442 1448 1449 1453
1438 1439 1440 1440 1441 1442 1443 1444 1444 1445 1446 1447 1447 1447 1449 1450 1455 1454 1453 1452 1452 1455 1453 1439 1440 1439 1447 1450 1449 1449 1450 1454 1452 1450 1453 1453 1455 1453 1446 1452 1457 1450 1445 1438 1442 1450 1456
1429 1426 1430 1432 1434 1435 1436 1438 1439 1439 1441 1442 1443 1444 1445 1446 1449 1450 1450 1449 1450 1453 1437 1429 1436 1437 1438 1443 1437 1438 1444 1448 1445 1447 1458 1447 1447 1449 1442 1440 1449 1442 1433 1435 1443 1444 1454
1422 1416 1420 1424 1427 1428 1430 1431 1433 1434 1436 1437 1438 1439 1441 1443 1444 1447 1447 1447 1451 1453 1427 1428 1432 1434 1436 1436 1434 1433 1436 1443 1445 1445 1447 1439 1439 1439 1433 1440 1443 1439 1434 1442 1444 1446 1457
1416 1410 1410 1415 1419 1422 1423 1425 1427 1428 1431 1432 1433 1434 1434 1438 1441 1442 1445 1448 1451 1433 1429 1427 1427 1430 1430 1430 1432 1431 1433 1438 1441 1447 1442 1439 1442 1437 1435 1439 1436 1425 1440 1452 1454 1459 1446
1407 1405 1403 1404 1410 1415 1417 1418 1421 1423 1425 1427 1429 1430 1429 1433 1437 1440 1442 1447 1433 1411 1419 1424 1425 1427 1428 1427 1424 1423 1428 1432 1434 1436 1428 1429 1432 1430 1429 1426 1428 1427 1432 1424 1437 1440 1432
1404 1398 1396 1396 1400 1405 1410 1412 1415 1417 1420 1422 1424 1425 1425 1428 1432 1437 1440 1436 1417 1410 1418 1421 1422 1423 1424 1428 1416 1421 1422 1423 1421 1430 1426 1423 1421 1421 1420 1417 1417 1429 1423 1409 1411 1407 1415
1398 1394 1388 1390 1393 1397 1402 1405 1409 1412 1414 1417 1418 1420 1419 1423 1429 1433 1435 1422 1415 1412 1417 1418 1410 1408 1411 1415 1411 1415 1416 1409 1412 1424 1434 1429 1425 1423 1412 1413 1421 1419 1408 1423 1411 1427 1425
1396 1391 1386 1385 1387 1391 1394 1399 1403 1406 1409 1411 1414 1416 1415 1417 1424 1429 1423 1416 1410 1411 1414 1413 1400 1401 1396 1401 1405 1409 1402 1394 1407 1413 1429 1427 1430 1422 1411 1408 1418 1425 1419 1416 1403 1407 1409
1393 1388 1383 1382 1380 1384 1388 1393 1397 1401 1405 1407 1409 1412 1410 1414 1421 1419 1412 1411 1410 1406 1407 1404 1395 1393 1389 1393 1399 1403 1398 1395 1395 1406 1422 1417 1420 1416 1408 1408 1411 1415 1417 1410 1410 1422 1411
1388 1380 1379 1376 1377 1377 1382 1387 1391 1395 1399 1402 1404 1405 1407 1407 1407 1408 1405 1404 1406 1404 1401 1396 1391 1390 1388 1389 1398 1400 1398 1393 1399 1404 1406 1404 1403 1410 1417 1418 1420 1420 1412 1412 1409 1408 1411
1384 1379 1373 1373 1374 1372 1374 1381 1385 1390 1394 1399 1401 1400 1404 1405 1400 1397 1400 1396 1396 1393 1392 1391 1386 1387 1388 1388 1388 1393 1396 1392 1395 1398 1402 1401 1394 1387 1390 1388 1405 1417 1415 1410 1412 1415 1412
1383 1376 1373 1369 1370 1368 1370 1376 1380 1385 1389 1393 1394 1390 1390 1395 1395 1393 1392 1388 1389 1388 1388 1388 1384 1381 1385 1387 1388 1388 1396 1394 1397 1398 1401 1404 1392 1384 1382 1383 1392 1399 1408 1412 1412 1408 1411
1383 1378 1373 1368 1366 1364 1364 1371 1376 1380 1384 1386 1387 1386 1386 1383 1384 1385 1386 1380 1383 1383 1379 1381 1385 1376 1378 1377 1380 1385 1387 1390 1396 1400 1403 1406 1399 1391 1392 1394 1391 1396 1398 1402 1404 1403 1405
1381 1377 1370 1364 1364 1361 1359 1365 1371 1375 1378 1378 1381 1382 1384 1373 1372 1376 1372 1372 1369 1374 1375 1374 1378 1375 1374 1375 1377 1378 1383 1387 1388 1391 1398 1406 1404 1394 1396 1397 1399 1404 1391 1395 1397 1397 1400
1377 1371 1366 1361 1360 1357 1355 1361 1366 1369 1372 1375 1377 1380 1382 1374 1366 1364 1366 1368 1368 1369 1372 1373 1377 1380 1376 1377 1379 1381 1385 1390 1387 1388 1392 1399 1401 1400 1405 1400 1410 1383 1385 1383 1389 1388 1391
1374 1369 1364 1359 1357 1354 1352 1358 1362 1365 1368 1371 1374 1377 1377 1370 1364 1360 1364 1365 1368 1364 1370 1374 1374 1378 1379 1378 1381 1391 1396 1401 1399 1400 1393 1399 1405 1406 1407 1406 1389 1379 1386 1386 1386 1386 1385
1371 1365 1361 1357 1354 1350 1347 1351 1357 1360 1363 1367 1369 1373 1376 1375 1359 1362 1361 1364 1365 1368 1373 1374 1376 1376 1377 1379 1378 1387 1392 1397 1402 1406 1404 1404 1405 1409 1410 1406 1402 1385 1386 1388 1386 1390 1376
1368 1363 1358 1352 1347 1345 1344 1347 1353 1356 1359 1362 1365 1368 1373 1373 1364 1364 1360 1361 1362 1364 1365 1371 1372 1375 1376 1381 1375 1372 1377 1379 1392 1399 1409 1411 1412 1413 1417 1413 1388 1384 1388 1390 1394 1389 1387
1364 1358 1353 1347 1345 1343 1341 1343 1349 1352 1355 1359 1361 1364 1368 1369 1365 1362 1362 1361 1360 1362 1358 1368 1370 1375 1379 1375 1372 1373 1369 1371 1374 1381 1395 1400 1409 1410 1418 1415 1405 1387 1393 1390 1392 1392 1392
1360 1354 1349 1345 1338 1339 1338 1340 1345 1348 1351 1356 1359 1361 1364 1368 1364 1362 1360 1359 1359 1359 1361 1365 1365 1366 1372 1377 1372 1373 1374 1374 1368 1380 1384 1387 1377 1380 1384 1385 1388 1390 1391 1391 1393 1394 1396
Wind_Speed
24 18 17 18 19 22 18 20 18 15 14 14 14 11 10 9 9 10 9 9 9 9 11 9 9 11 11 15 24 4 2 4 2 14 20 19 20 18 18 21 25 22 23 25 24 20 17
22 22 20 18 20 20 19 19 18 17 17 16 15 14 11 9 10 10 10 9 8 8 9 12 10 12 13 18 16 19 12 9 5 6 16 21 15 21 17 24 22 16 29 26 20 24 22
23 26 21 19 20 21 20 19 16 18 19 17 16 16 14 12 12 11 11 9 9 9 8 11 10 11 16 20 9 13 18 20 16 13 12 17 21 16 16 18 32 29 17 19 26 21 19
24 26 18 20 20 21 21 21 19 18 17 17 15 16 15 14 13 14 12 9 9 9 10 11 11 10 12 13 22 15 9 7 12 19 17 14 19 25 20 15 24 24 19 16 19 23 24
24 24 20 20 22 22 21 21 20 20 18 17 16 16 16 16 15 15 15 14 12 10 11 11 8 11 13 11 21 23 23 17 10 11 17 14 16 21 17 10 10 14 19 26 21 23 18
25 22 22 23 24 23 22 21 21 21 20 18 18 17 15 15 14 16 15 13 14 11 14 10 10 6 19 11 13 16 18 19 20 11 15 20 14 12 14 16 16 19 25 19 23 21 16
25 23 23 24 25 23 22 21 21 20 20 19 18 17 15 15 15 17 18 15 8 7 27 13 12 16 3 17 8 8 16 17 18 20 18 26 12 18 28 27 20 23 18 24 19 22 22
28 25 24 24 23 22 20 18 18 18 18 17 17 16 15 15 15 17 19 15 15 4 5 31 20 19 13 6 7 13 17 17 21 21 19 17 19 27 28 22 27 23 22 23 13 14 11
29 25 25 23 24 23 21 20 17 17 17 17 16 14 14 13 15 18 24 26 24 20 6 8 36 28 26 11 13 16 21 25 20 21 21 23 20 27 27 22 26 26 20 19 14 13 11
30 25 26 25 25 24 23 23 18 15 17 16 14 12 13 13 13 16 22 16 21 20 4 6 9 12 20 13 10 26 25 22 15 21 22 17 21 23 29 28 22 27 19 17 13 12 9
25 27 29 26 27 26 24 24 19 17 17 16 14 12 13 15 5 7 9 7 6 9 6 11 9 8 13 15 5 21 28 25 20 16 5 13 13 24 29 25 21 16 25 16 14 11 2
38 13 27 27 27 27 26 23 21 17 17 16 17 12 14 15 18 14 13 10 17 2 7 8 7 11 10 20 15 3 32 23 19 18 17 21 21 25 23 20 22 9 17 10 12 5 7
36 25 28 27 25 27 25 23 20 17 16 16 16 20 18 14 10 18 12 18 2 6 3 5 4 8 15 13 19 12 19 20 10 7 10 11 17 3 10 14 21 15 16 6 5 5 7
29 36 32 14 23 25 27 24 21 19 17 18 16 15 19 15 13 12 27 2 8 3 6 3 4 6 8 10 18 18 13 16 22 10 6 7 7 9 9 11 9 18 16 7 7 9 13
29 33 38 22 23 24 27 24 21 18 17 17 14 16 21 19 18 18 13 5 5 4 6 6 8 4 4 10 11 18 18 18 20 17 4 6 6 2 16 13 16 9 19 2 4 5 10
32 23 37 24 14 23 24 22 18 16 17 18 14 18 22 19 21 28 5 10 5 5 6 8 11 12 12 18 12 16 10 13 18 18 16 5 4 1 5 13 3 6 11 6 3 7 6
26 23 31 29 21 22 22 21 16 16 17 17 16 4 7 17 27 14 6 7 6 9 13 14 15 13 14 17 15 16 7 8 22 17 17 9 1 3 11 5 11 3 7 5 3 3 4
28 23 24 31 22 20 22 21 15 16 15 17 9 3 13 27 5 5 8 5 5 6 22 16 9 13 13 18 17 15 15 10 20 11 8 9 5 2 8 4 14 12 9 12 6 5 4
33 31 20 32 31 12 22 20 13 18 22 18 6 5 18 37 5 7 9 6 8 7 11 13 11 14 14 16 11 11 8 16 16 20 8 13 3 3 5 8 3 2 11 17 11 3 11
33 32 22 26 28 8 23 19 13 19 20 21 5 4 7 18 15 5 11 7 7 16 14 13 9 14 12 14 15 15 8 10 14 21 23 5 8 6 4 7 12 11 15 17 15 9 10
32 32 28 23 24 9 16 18 14 18 21 23 9 5 8 6 9 16 6 3 8 5 15 24 8 18 17 14 18 7 17 10 13 19 13 4 6 6 2 4 14 14 19 18 18 17 11
34 30 28 21 27 15 15 19 15 19 22 26 6 5 5 3 16 15 14 9 15 12 9 10 13 19 18 12 14 12 15 12 9 13 16 13 4 4 4 2 6 13 16 20 22 22 21
34 31 29 21 17 25 12 24 17 18 26 19 18 6 3 5 8 10 9 12 11 16 7 10 13 8 17 14 13 6 18 15 5 14 16 9 6 3 2 6 5 9 18 19 20 21 20
33 32 30 29 21 20 8 22 18 18 26 25 14 9 6 9 10 10 3 8 12 12 9 8 7 2 8 7 5 2 10 15 4 11 17 13 9 3 2 5 6 2 3 17 21 19 20
34 32 29 29 29 21 9 23 20 16 21 28 24 8 5 8 10 8 8 5 1 3 14 1 7 13 12 13 8 6 2 4 4 8 15 9 7 2 3 4 9 8 3 6 16 17 19
33 32 29 29 29 21 14 22 20 16 20 26 29 24 6 4 1 2 7 4 3 2 3 2 6 11 8 2 3 5 4 4 5 2 8 6 8 4 1 3 4 4 2 1 6 10 4
33 31 30 30 30 23 12 17 18 17 20 26 20 23 8 7 10 3 4 4 5 2 4 5 7 4 6 1 6 6 3 9 7 9 5 3 2 4 3 4 7 5 6 6 6 2 3
32 30 31 30 28 23 13 21 17 15 22 24 24 19 15 9 10 5 4 3 4 4 5 7 6 2 2 3 3 2 3 5 6 14 9 8 7 4 4 5 8 10 6 4 3 6 8
30 29 30 29 26 22 14 18 17 14 23 23 21 18 20 8 5 7 8 9 12 6 6 11 1 6 5 2 2 2 2 3 5 7 5 8 8 7 9 5 4 8 3 2 6 12 13
Wind_Direction
288 265 265 280 284 293 288 288 292 292 286 278 271 270 277 270 269 274 277 278 272 250 236 236 248 236 217 221 228 218 121 72 8 212 214 217 219 220 237 228 230 237 236 240 244 246 243
280 281 257 266 277 283 290 287 283 279 282 283 268 261 261 261 269 275 281 273 268 263 244 240 245 240 221 245 242 231 240 260 285 199 220 220 224 224 247 247 226 230 236 243 230 239 242
278 281 254 259 270 277 285 289 291 268 273 276 270 257 254 254 263 274 272 277 263 259 248 237 237 236 234 234 237 232 236 244 250 254 236 230 227 229 227 257 246 229 237 231 243 237 246
276 279 260 257 265 271 276 281 286 282 273 267 273 260 249 258 261 269 274 269 264 249 243 236 239 228 244 249 238 237 213 219 240 241 238 241 231 239 254 274 279 230 241 242 227 229 238
276 274 259 258 260 261 268 275 280 285 277 266 264 267 253 245 253 263 271 271 258 250 237 238 232 225 253 245 233 228 229 233 242 250 232 234 233 225 238 238 253 229 226 220 235 219 220
287 263 261 259 261 261 260 267 275 281 280 271 261 266 254 244 245 255 270 276 255 249 215 207 220 224 242 231 232 223 222 225 228 238 221 214 211 211 219 220 210 213 219 215 223 223 212
286 266 257 258 261 257 260 262 268 272 282 271 257 261 251 241 237 251 262 284 249 214 191 188 197 208 344 209 200 214 208 213 217 227 221 208 208 215 211 222 231 215 208 219 214 223 221
280 269 256 256 254 253 255 259 263 268 278 274 260 257 247 240 236 247 250 247 226 225 227 217 230 232 249 224 231 223 197 198 204 219 217 222 221 224 219 227 225 236 226 215 219 169 204
271 273 254 252 246 251 254 257 263 268 272 277 264 254 245 237 235 244 242 258 252 239 253 225 223 231 221 221 235 216 193 207 206 221 222 221 228 221 222 212 222 230 223 227 197 191 216
264 261 252 249 246 248 251 253 254 265 268 265 263 250 241 225 245 254 251 261 250 249 265 199 211 223 200 190 238 228 208 210 223 224 224 235 251 245 215 217 226 219 220 226 174 197 219
286 269 251 253 249 248 248 253 249 252 258 259 254 243 235 227 216 235 249 251 238 175 266 125 155 191 194 183 168 208 208 212 225 205 147 218 239 232 210 221 228 215 198 191 193 201 281
293 319 259 246 248 249 249 252 250 250 253 255 245 238 222 220 229 249 256 211 162 183 247 168 140 184 182 198 232 238 196 210 229 241 214 231 270 215 206 229 225 220 175 155 190 182 223
273 302 328 243 245 245 249 251 250 249 253 253 252 245 221 211 223 233 221 148 167 236 91 185 185 200 205 193 216 195 191 198 206 192 223 198 250 308 228 228 226 166 182 163 155 183 218
309 281 289 254 241 241 242 249 247 248 253 249 241 248 227 216 218 204 174 142 232 241 189 124 169 177 198 184 211 196 200 211 218 207 217 183 199 201 201 245 169 169 183 166 163 183 195
316 275 294 313 234 235 239 246 242 248 248 243 237 238 211 216 199 207 160 224 236 202 161 177 156 169 183 214 211 213 218 224 211 187 278 161 254 239 254 195 158 190 218 60 118 43 157
326 299 293 303 259 233 240 238 240 245 239 240 220 209 225 226 201 186 202 236 237 179 148 195 196 203 186 196 205 193 215 214 214 201 216 307 272 308 226 127 9 216 175 180 226 155 181
328 313 283 292 336 235 234 232 234 242 232 214 211 193 195 190 184 177 217 225 243 202 180 199 221 197 213 183 206 191 225 231 193 192 189 259 197 280 241 142 152 174 172 235 273 356 211
333 326 294 286 322 234 238 218 227 230 220 201 181 219 198 168 167 201 225 197 231 242 198 235 267 216 216 184 196 208 224 206 199 176 200 209 171 214 77 70 166 166 204 218 208 161 266
325 343 302 284 299 243 236 209 218 219 206 195 193 178 192 173 200 211 228 227 229 243 204 210 222 215 209 195 206 206 236 174 198 192 214 183 176 114 98 89 61 188 233 205 238 321 219
328 332 338 299 301 262 232 202 213 219 209 204 197 193 156 199 239 235 219 241 220 225 227 214 226 205 210 201 223 194 230 200 197 207 216 302 263 239 164 178 147 190 206 205 212 224 229
333 335 340 300 301 319 240 201 211 215 204 204 206 227 181 187 229 233 231 257 203 247 218 209 245 204 194 201 209 210 198 169 194 216 214 274 286 230 245 52 173 186 191 209 222 232 232
337 336 327 314 283 343 331 206 212 213 202 209 191 215 180 288 221 221 226 221 234 221 224 203 229 204 197 210 200 202 199 195 181 209 214 222 301 296 199 262 225 210 208 208 219 226 233
333 334 334 320 306 307 324 206 207 211 204 205 209 223 300 248 222 223 221 217 239 212 250 190 208 228 206 220 198 224 190 198 194 194 193 199 244 238 192 183 202 249 227 215 225 231 232
330 334 330 333 297 310 197 201 209 215 213 211 206 199 217 256 247 235 217 208 205 204 224 202 170 174 234 170 136 134 117 27 259 211 187 192 230 274 133 176 217 14 357 229 221 233 231
330 332 329 331 321 299 346 212 215 221 221 219 218 189 220 258 270 261 211 186 100 264 182 166 188 220 229 158 172 123 72 36 28 13 197 171 217 178 203 219 311 276 212 190 203 238 235
327 331 329 325 323 293 340 198 214 225 222 218 228 225 228 299 275 314 180 188 154 109 107 191 203 161 164 202 183 162 168 141 161 112 2 165 207 252 203 222 231 57 126 134 179 262 238
327 329 332 326 323 304 323 194 212 222 215 213 224 222 211 239 274 251 229 200 167 162 136 145 160 134 88 160 204 168 142 153 162 159 148 129 201 166 143 262 282 93 137 148 200 36 85
324 327 331 329 321 295 311 196 208 222 209 207 224 221 198 237 274 261 257 179 171 186 172 160 135 172 152 188 172 150 164 178 166 162 172 163 150 164 161 225 254 134 131 210 81 108 133
325 329 330 329 320 292 312 197 206 220 206 204 221 225 209 234 289 291 249 228 220 192 145 172 345 149 143 157 228 129 143 174 154 179 187 201 218 172 197 204 104 166 35 43 154 141 138